Location: Geyikbay?r?
(36.8756°N, 30.4583°E)
Time: 12:37:31
(UTC+00:00)

Cosmos 2369 Rocket - Pass Details

Date: 05 August 2024
Orbit: 826 x 853 km, 71.0° (Epoch: 11 September)

Event Time Altitude Azimuth Distance (km) Brightness Sun altitude
Rises 17:44:56 0° 199° (SSW) 3,351 5.2 -8.9°
Reaches altitude 10° 17:47:21 10° 199° (SSW) 2,424 4.5 -9.3°
Maximum altitude 17:52:55 86° 111° (ESE) 839 2.2 -10.2°
Drops below altitude 10° 17:58:33 10° 23° (NNE) 2,454 4.7 -11.2°
Sets 18:01:00 0° 23° (NNE) 3,396 5.5 -11.6°
